Weather Roundup
Issued by NWS Corpus Christi, TX

Current Version | Previous Version | Text Only | Print | Product List | Glossary On
Versions: 1 2 3 4 5 6 7 8 9 10 11 12 13 14 15 16 17 18 19 20 21 22 23 24 25 26 27 28 29 30 31 32 33 34 35 36 37 38 39 40 41 42 43 44 45 46 47 48 49 50
000
ASUS44 KCRP 260410
HRRCRP

SOUTH TEXAS REGIONAL WEATHER ROUNDUP
NATIONAL WEATHER SERVICE CORPUS CHRISTI TX
1100 PM CDT SAT OCT 25 2014


TXZ229>244-260500-
...CORPUS CHRISTI AREA OBSERVATIONS...

CITY           SKY/WX    TMP DP  RH WIND       PRES   REMARKS
CORPUS CHRISTI CLEAR     67  63  87 S6        30.10F
NAS CORPUS CHR CLEAR     70  65  84 SE7       30.10S
ROCKPORT       CLEAR     74  64  71 SE7       30.10S
KINGSVILLE NAS CLEAR     65  63  93 S6        30.10F
ALICE          CLEAR     66  62  87 S3        30.10F
FALFURRIAS     CLEAR     64  60  85 E3        30.11S
$$

...VICTORIA AREA OBSERVATIONS...

CITY           SKY/WX    TMP DP  RH WIND       PRES   REMARKS
VICTORIA       CLEAR     66  60  81 S5        30.11S
BEEVILLE       FAIR      67  63  85 S5        30.11S
PLEASANTON     CLEAR     72  61  68 S5        30.11R
SAN ANTONIO    CLEAR     73  56  54 CALM      30.10S
$$

...LAREDO AREA OBSERVATIONS...

CITY           SKY/WX    TMP DP  RH WIND       PRES   REMARKS
LAREDO         CLEAR     75  62  64 SE10      30.12S
COTULLA        CLEAR     76  59  55 SE7       30.10R
DEL RIO        CLEAR     72  60  66 SE3       30.08R
MCALLEN        CLEAR     70  66  87 CALM      30.12R
HEBBRONVILLE   CLEAR     67  60  77 S3        30.13S
$$

...OTHER TEXAS OBSERVATIONS...

CITY           SKY/WX    TMP DP  RH WIND       PRES   REMARKS
BROWNSVILLE    CLEAR     69  66  90 E5        30.11S
HOUSTON        CLEAR     67  59  75 S5        30.11S
COL. STATION   CLEAR     70  61  73 S3        30.09F
AUSTIN         CLEAR     63  57  81 S5        30.09S
WACO           CLEAR     70  62  76 S7        30.08S
FORT WORTH     CLEAR     73  60  63 S9        30.04F
WICHITA FALLS  CLEAR     69  57  65 S10       30.01S
LUBBOCK        CLEAR     65  48  54 S12       30.10S
EL PASO        CLEAR     68  49  50 CALM      30.13S
$$

...MARINE OBSERVATIONS...

STATION/POSITION TIME  SKY/WX   TEMP    WIND        PRES    VSBY  WAVE   SWELL
                                AIR SEA DIR/SP/G                  HT/PER HT/PER
                 (UTC)          (F)     (DEG/KT/KT) (MB)    (MI)  (FT/S) (FT/S)
PORT ARANSAS     0400            77 79  120/ 10/ 12 1020.0F
BUOY 90 E PORT A 0400            76 81  100/  6/  6 1020.1S         2/ 8   2/ 8
BUOY 45 SE BAFFI 0400            77 80  110/  8/ 12 1019.0S         2/ 8   2/ 8
BUOY 200 E PT IS 0400            76 81   90/  6/ 10 1019.1F         3/ 7   2/ 7
BUOY 15 E GALVES 0400            74 77  170/  4/  6 1019.4F         1/ 7   2/ 7
$$



USA.gov is the U.S. government's official web portal to all federal, state and local government web resources and services.